TimeCST,TemperatureF,Dew PointF,Humidity,Sea Level PressureIn,VisibilityMPH,Wind Direction,Wind SpeedMPH,Gust SpeedMPH,PrecipitationIn,Events,Conditions,WindDirDegrees,DateUTC
12:15 AM,43.7,29.3,57,30.07,10.0,SSW,13.8,-,N/A,,Clear,200,2013-01-19 06:15:00
12:35 AM,43.3,29.3,58,30.06,10.0,SSW,15.0,19.6,N/A,,Clear,200,2013-01-19 06:35:00
12:55 AM,43.2,29.1,58,30.06,10.0,SSW,15.0,-,N/A,,Clear,200,2013-01-19 06:55:00
1:15 AM,43.7,29.1,57,30.06,10.0,SSW,15.0,-,N/A,,Clear,200,2013-01-19 07:15:00
1:35 AM,43.9,28.9,56,30.06,10.0,SSW,15.0,-,N/A,,Clear,200,2013-01-19 07:35:00
1:55 AM,43.5,28.8,56,30.06,10.0,South,13.8,-,N/A,,Clear,190,2013-01-19 07:55:00
2:15 AM,41.9,28.9,60,30.06,10.0,South,11.5,-,N/A,,Clear,190,2013-01-19 08:15:00
2:35 AM,41.0,29.3,63,30.06,10.0,South,11.5,-,N/A,,Clear,190,2013-01-19 08:35:00
2:55 AM,40.8,29.3,64,30.06,10.0,South,9.2,-,N/A,,Clear,190,2013-01-19 08:55:00
3:15 AM,40.1,29.3,65,30.05,10.0,South,9.2,-,N/A,,Clear,180,2013-01-19 09:15:00
3:35 AM,39.9,29.3,66,30.04,10.0,South,9.2,-,N/A,,Clear,180,2013-01-19 09:35:00
3:55 AM,40.5,29.5,65,30.03,10.0,South,11.5,-,N/A,,Clear,180,2013-01-19 09:55:00
4:15 AM,41.0,29.5,64,30.03,10.0,South,11.5,-,N/A,,Clear,180,2013-01-19 10:15:00
4:35 AM,40.6,29.7,65,30.03,10.0,South,10.4,-,N/A,,Clear,190,2013-01-19 10:35:00
4:55 AM,40.8,29.7,64,30.02,10.0,South,10.4,-,N/A,,Clear,190,2013-01-19 10:55:00
5:15 AM,41.0,29.7,64,30.02,10.0,South,9.2,18.4,N/A,,Clear,190,2013-01-19 11:15:00
5:35 AM,40.1,29.8,67,30.02,10.0,South,10.4,-,N/A,,Clear,180,2013-01-19 11:35:00
6:55 AM,39.9,30.0,68,30.00,10.0,South,10.4,-,N/A,,Clear,180,2013-01-19 12:55:00
7:15 AM,40.3,30.0,67,29.99,10.0,South,11.5,-,N/A,,Clear,180,2013-01-19 13:15:00
7:55 AM,41.2,30.2,65,29.99,10.0,South,11.5,-,N/A,,Clear,180,2013-01-19 13:55:00
8:15 AM,41.9,30.6,64,29.99,10.0,South,10.4,-,N/A,,Clear,190,2013-01-19 14:15:00
8:35 AM,43.0,31.1,63,29.99,10.0,South,9.2,-,N/A,,Clear,190,2013-01-19 14:35:00
9:35 AM,47.3,32.9,57,29.98,10.0,SSW,13.8,19.6,N/A,,Clear,210,2013-01-19 15:35:00
9:55 AM,49.3,33.8,55,29.98,10.0,SW,16.1,24.2,N/A,,Clear,220,2013-01-19 15:55:00
10:15 AM,50.9,34.5,54,29.98,10.0,SW,15.0,24.2,N/A,,Clear,220,2013-01-19 16:15:00
10:35 AM,52.0,34.9,52,29.97,10.0,SW,18.4,27.6,N/A,,Clear,220,2013-01-19 16:35:00
11:15 AM,54.3,36.0,50,29.94,10.0,SW,20.7,25.3,N/A,,Clear,230,2013-01-19 17:15:00
11:35 AM,55.0,36.0,49,29.92,10.0,WSW,20.7,26.5,N/A,,Clear,240,2013-01-19 17:35:00
11:55 AM,55.4,36.7,49,29.90,10.0,SW,17.3,27.6,N/A,,Clear,230,2013-01-19 17:55:00
12:15 PM,56.1,37.0,49,29.88,10.0,SW,21.9,28.8,N/A,,Clear,220,2013-01-19 18:15:00
12:35 PM,56.5,36.7,48,29.90,10.0,WSW,21.9,31.1,N/A,,Clear,240,2013-01-19 18:35:00
12:55 PM,57.6,37.4,47,29.90,10.0,SW,20.7,28.8,N/A,,Clear,230,2013-01-19 18:55:00
1:15 PM,57.9,37.8,47,29.88,10.0,SW,17.3,28.8,N/A,,Clear,230,2013-01-19 19:15:00
1:35 PM,56.7,37.9,50,29.88,10.0,WSW,16.1,27.6,N/A,,Clear,240,2013-01-19 19:35:00
1:55 PM,56.8,38.3,50,29.89,10.0,WSW,15.0,24.2,N/A,,Clear,240,2013-01-19 19:55:00
2:15 PM,57.0,38.3,50,29.88,10.0,WSW,15.0,20.7,N/A,,Clear,240,2013-01-19 20:15:00
2:35 PM,58.3,38.1,47,29.88,10.0,WSW,12.7,-,N/A,,Clear,240,2013-01-19 20:35:00
2:55 PM,58.3,38.7,48,29.88,10.0,SW,15.0,20.7,N/A,,Clear,230,2013-01-19 20:55:00
3:15 PM,58.3,38.3,47,29.88,10.0,SW,12.7,20.7,N/A,,Clear,230,2013-01-19 21:15:00
3:35 PM,58.1,37.6,46,29.89,10.0,WSW,13.8,23.0,N/A,,Clear,240,2013-01-19 21:35:00
3:55 PM,57.4,37.4,47,29.89,10.0,WSW,17.3,21.9,N/A,,Clear,240,2013-01-19 21:55:00
4:15 PM,56.7,36.9,48,29.90,10.0,WSW,12.7,-,N/A,,Clear,240,2013-01-19 22:15:00
4:35 PM,55.4,36.5,49,29.91,10.0,WSW,11.5,17.3,N/A,,Clear,250,2013-01-19 22:35:00
4:55 PM,54.1,36.5,51,29.92,10.0,WSW,10.4,-,N/A,,Clear,250,2013-01-19 22:55:00
5:15 PM,52.5,36.5,54,29.93,10.0,WSW,9.2,-,N/A,,Clear,240,2013-01-19 23:15:00
5:35 PM,51.8,36.5,56,29.94,10.0,WSW,9.2,-,N/A,,Clear,250,2013-01-19 23:35:00
5:55 PM,52.2,36.5,55,29.95,10.0,WSW,10.4,-,N/A,,Clear,250,2013-01-19 23:55:00
6:15 PM,51.4,36.1,56,29.96,10.0,WSW,11.5,-,N/A,,Clear,250,2013-01-20 00:15:00
6:35 PM,50.2,35.8,58,29.97,10.0,WSW,10.4,-,N/A,,Clear,250,2013-01-20 00:35:00
6:55 PM,48.0,35.1,61,29.98,10.0,WSW,9.2,-,N/A,,Clear,240,2013-01-20 00:55:00
7:15 PM,48.0,35.1,61,29.99,10.0,WSW,11.5,16.1,N/A,,Clear,250,2013-01-20 01:15:00
7:35 PM,50.2,35.4,57,30.00,10.0,West,12.7,17.3,N/A,,Clear,260,2013-01-20 01:35:00
7:55 PM,50.2,35.4,57,30.01,10.0,WSW,12.7,18.4,N/A,,Clear,250,2013-01-20 01:55:00
8:15 PM,49.8,34.7,56,30.02,10.0,West,12.7,-,N/A,,Clear,270,2013-01-20 02:15:00
8:35 PM,43.5,34.0,69,30.04,10.0,West,11.5,-,N/A,,Clear,280,2013-01-20 02:35:00
8:55 PM,41.7,32.9,71,30.05,10.0,West,11.5,-,N/A,,Clear,280,2013-01-20 02:55:00
9:15 PM,39.6,32.0,74,30.05,10.0,West,10.4,-,N/A,,Clear,280,2013-01-20 03:15:00
9:35 PM,40.8,32.2,71,30.05,10.0,WNW,12.7,-,N/A,,Clear,290,2013-01-20 03:35:00
9:55 PM,39.7,31.8,73,30.06,10.0,West,9.2,-,N/A,,Clear,280,2013-01-20 03:55:00
10:15 PM,39.0,32.0,76,30.08,10.0,West,11.5,-,N/A,,Clear,280,2013-01-20 04:15:00
10:35 PM,42.1,32.0,67,30.08,10.0,NW,11.5,-,N/A,,Clear,310,2013-01-20 04:35:00
10:55 PM,43.3,32.4,65,30.09,10.0,WNW,15.0,19.6,N/A,,Clear,300,2013-01-20 04:55:00
11:15 PM,42.1,32.0,67,30.10,10.0,NW,16.1,23.0,N/A,,Clear,310,2013-01-20 05:15:00
11:35 PM,42.4,32.0,67,30.10,10.0,WNW,18.4,23.0,N/A,,Scattered Clouds,300,2013-01-20 05:35:00
11:55 PM,41.5,30.7,65,30.12,10.0,NW,17.3,29.9,N/A,,Scattered Clouds,310,2013-01-20 05:55:00